STARLINK-36339, 67340

Orbit data source: Space-Track

STARLINK-36339, 67340 is a payload satellite owned by SpaceX/Seattle (US) in LEO that was launched on Fri, 09 Jan 2026 UTC via an FALCON 9 launch vehicle from the Air Force Eastern Test Range (AFETR). Payload-class satellites include a variety of spacecraft equipped with specific instruments for various scientific and technological missions. These include communications satellites like Starlink; space stations such as the ISS; scientific satellites like the Hubble; Earth observation satellites from companies like Planet Labs, Umbra, and HawkEye 360; GPS; miniature CubeSats for education and research; and military/defense satellites.

Loading next visibility...
Identifier
67340, 2026-003G
Orbit
LEO
Country
Flag of USUS
Related business
Manufacturer
SpaceX/Seattle
Mission
Operational Commercial Communications
Bus & Motor
STARLINK V2MO, Unknown motor
Mass
575 kg wet, ~530 kg dry
Launch date (UTC)
2026-01-09 (5 months ago)
Launch vehicle
FALCON 9
Launch site
Air Force Eastern Test Range (AFETR)
Object type
Payload
Rocket body
Debris
Shape & HBR
Box + 2 Pan, 17.7 m
Radar Cross Section
36.964 m², Large (>1 m²)

Expand to show TLE details & history
Last TLE update: 1 day ago

TLE from 1 day ago
0 STARLINK-36339
1 67340U 26003G   26170.62518039  .00023656  00000-0  86615-3 0  9992
2 67340  43.0033  11.3904 0001553 266.9273  93.1401 15.27590010 24411
Epoch: 2026-06-19T15:00Z
TLE epoch observation values (Epoch: 2026-06-19T15:00:15.585Z)
Latitude
-0.00003°
Longitude
-121.52604°
Altitude
482.853 km
Speed
7.626 km/s
True Right ascension
00h 45m 33s
True Declination
0° 00' 00"
Sunlit
Object was in daylight at epoch
Visualization orbit readout
Latitude
Unknown
Longitude
Unknown
Altitude
Unknown
Speed
Unknown
Apparent Right ascension
Unknown
Apparent Declination
Unknown
Sunlit
N/A
Visualization observer readout
Local Sidereal Time
07:20:28
Azimuth
Unknown
Elevation
Unknown
Doppler factor
Unknown
Orbital elements
Apogee altitude
486.03 km
Perigee altitude
483.898 km
Semi-major axis
6,863.101 km
Eccentricity
0.00016
Inclination
43.0033°
RAAN
11.3904°
Arg. of periapsis
266.9273°
True anomaly
93.15787°
Mean anomaly
93.1401°
Eccentric anomaly
93.14898°
Mean motion
3.81736 °/min
Orbital period
94.31 mins
BSTAR
0.00086615
Loading maneuver chart data...
Computing Atmospheric mass density...
Loading historical data...
Loading historical data...
Loading historical data...
Loading historical data...
Loading historical data...
Loading historical data...
Loading historical data...

Documentation

Showing up to 5 results
|